Погода в Принс-Руперте

Канада     54°18′23″N   130°19′14″W
темп.,
°C
ветер,
м/с
пор.,
м/с
влажн.,
%
обл.,
%
осадки,
мм/ч
давл.,
гПа
погр.,
м
18 мая, вт
вт1823:00+5сз228246 0.0 1008135
02:00+4всв1185100 0.0 100851
05:00+5ююв1285100 0.1 1009176
08:00+6вюв0291100 2.4 1012292
11:00+7юз1287100 4.0 1014481
14:00+8ю2280100 1.3 1016656
17:00+8ююз2276100 1.6 1017660
20:00+7ююз2284100 0.3 1018477
19 мая, ср
ср1923:00+6ююз1292100 0.5 1019183
02:00+6ююз129398 0.2 1021166
05:00+6ю129491 0.4 1021136
08:00+7ю228979 0.1 1022305
11:00+10ююз117375 0.2 1022786
14:00+10зюз217477 0.0 1022671
17:00+10зюз217351 0.0 1022559
20:00+10з227734 0.0 1022335
20 мая, чт
чт2023:00+7зюз119415 0.0 102226
02:00+6вюв11958 0.0 102236
05:00+5в119360 0.0 102233
08:00+8в0180100 0.0 1022124
11:00+11з2167100 0.0 1021510
14:00+12з326563 0.0 1022689
17:00+12з336713 0.0 1021616
20:00+10зюз227813 0.0 1022277
21 мая, пт
пт2123:00+6ююв11949 0.0 102233
02:00+6вюв119260 0.0 102230
05:00+6вюв1189100 0.0 102234
08:00+9юв007394 0.0 1021103
11:00+13юз1250100 0.0 1020538
14:00+14зюз3344100 0.0 1020724
17:00+11ссз1159100 0.0 1020183
20:00+9с2280100 0.1 1020148
22 мая, сб
сб2223:00+8ссз1188100 0.8 102074
02:00+8вюв0192100 0.6 102062
05:00+8зюз0090100 0.7 102028
08:00+8ссз0087100 0.0 1020107
11:00+9з1181100 0.0 1020283
14:00+11зюз117495 0.0 1020404
17:00+11з227791 0.0 1019454
20:00+10зсз118498 0.0 1019245